User: anonymous   Login
Location: Melbourne
(37.8170°S, 144.9670°E)
Time: 11:24:20
(UTC+11:00)
Language:

ERBS - Orbit

View from above orbital plane
View from above orbital plane
View from above satellite
View from above satellite

Ground track
Ground track

The orbit data is extracted from the following two-line orbital elements,

1 15354U 84108B   17022.50825677  .00002980  00000-0  76370-4 0  9997
2 15354  57.0089  45.1253 0011921 160.4125 199.7390 15.42631450775718
Epoch (UTC): 22 January 2017 12:11:53
Eccentricity: 0.0011921
inclination: 57.0089°
perigee height: 430 km
apogee height: 446 km
right ascension of ascending node: 45.1253°
argument of perigee: 160.4125°
revolutions per day: 15.42631450
mean anomaly at epoch: 199.7390°
orbit number at epoch: 77571

The dashed part of the orbit path shows where the satellite is in the earth's shadow,  

DLR